Fremont, NE

11:18 PM CDT on March 26, 2017 (GMT -0500)
Fremont Municipal

Weather History for KFET - August, 2013

Change the Weather History Date:

Sunday, August 25, 2013

  Actual Average Record
Temperature  
Mean Temperature 85 °F -  
Max Temperature 94 °F 85 °F 106 °F (1955)
Min Temperature 76 °F 61 °F 48 °F (1958)
Cooling Degree Days 20    
Growing Degree Days 35 (Base 50)    
Moisture  
Dew Point 72 °F    
Average Humidity 67    
Maximum Humidity 83    
Minimum Humidity 48    
Precipitation  
Precipitation 0.00 in - - ()
Sea Level Pressure  
Sea Level Pressure 30.07 in    
Wind  
Wind Speed 13 mph (South)    
Max Wind Speed 16 mph    
Max Gust Speed 26 mph    
Visibility 10 miles    
Events      
Averages and records for this station are not official NWS values.
T = Trace of Precipitation, MM = Missing Value Source: NWS Daily Summary

Daily Weather History Graph

Daily Weather History Graph

Search for Another Location

Airport or City:

Trip Planner

Search our weather history database for the weather conditions in past years. The results will help you decide how hot, cold, wet, or windy it might be!

Date:

Astronomy

Aug. 25, 2013 Rise Set
Actual Time 6:45 AM CDT 8:09 PM CDT
Civil Twilight 6:16 AM CDT 8:38 PM CDT
Nautical Twilight 5:41 AM CDT 9:13 PM CDT
Astronomical Twilight 5:04 AM CDT 9:50 PM CDT
Moon 10:37 PM CDT (8/25) 11:53 AM CDT (8/25)
Length of Visible Light 14h 22m
Length of Day
13h 24m
Waning Gibbous, 75% of the Moon is Illuminated
Aug 25
Waning Gibbous
Aug 28
Last Quarter
Sep 5
New
Sep 12
First Quarter
Sep 19
Full

Hourly Weather History & Observations

Time (CDT) Temp. Heat Index Dew Point Humidity Pressure Visibility Wind Dir Wind Speed Gust Speed Precip Events Conditions
12:15 AM 79.9 °F - 70.7 °F 73% 30.05 in 10.0 mi SSE 15.0 mph 21.9 mph N/A   Clear
12:35 AM 79.3 °F - 70.7 °F 75% 30.05 in 10.0 mi SSE 15.0 mph 20.7 mph N/A   Clear
12:55 AM 79.3 °F - 70.3 °F 74% 30.05 in 10.0 mi South 15.0 mph 23.0 mph N/A   Clear
1:15 AM 79.0 °F - 70.5 °F 75% 30.05 in 10.0 mi SSE 12.7 mph 21.9 mph N/A   Clear
1:35 AM 78.4 °F - 70.7 °F 77% 30.05 in 10.0 mi SSE 12.7 mph 19.6 mph N/A   Clear
1:55 AM 78.1 °F - 70.7 °F 78% 30.05 in 10.0 mi South 13.8 mph 20.7 mph N/A   Clear
2:15 AM 77.9 °F - 70.7 °F 78% 30.06 in 10.0 mi South 13.8 mph 21.9 mph N/A   Clear
2:35 AM 77.4 °F - 70.7 °F 80% 30.06 in 10.0 mi South 16.1 mph - N/A   Clear
2:55 AM 77.4 °F - 70.7 °F 80% 30.06 in 10.0 mi South 15.0 mph 19.6 mph N/A   Clear
3:15 AM 77.0 °F - 70.7 °F 81% 30.07 in 10.0 mi South 12.7 mph 18.4 mph N/A   Clear
3:35 AM 77.0 °F - 70.7 °F 81% 30.07 in 10.0 mi South 12.7 mph 18.4 mph N/A   Clear
3:55 AM 77.0 °F - 70.7 °F 81% 30.08 in 10.0 mi South 12.7 mph 18.4 mph N/A   Clear
4:15 AM 77.4 °F - 70.5 °F 79% 30.08 in 10.0 mi South 13.8 mph 19.6 mph N/A   Clear
4:35 AM 77.4 °F - 70.3 °F 79% 30.08 in 10.0 mi South 13.8 mph 21.9 mph N/A   Clear
4:55 AM 77.4 °F - 70.3 °F 79% 30.09 in 10.0 mi South 12.7 mph 19.6 mph N/A   Clear
5:15 AM 77.4 °F - 70.3 °F 79% 30.08 in 10.0 mi South 13.8 mph 20.7 mph N/A   Clear
5:35 AM 77.4 °F - 70.3 °F 79% 30.08 in 10.0 mi South 12.7 mph 24.2 mph N/A   Clear
5:55 AM 77.0 °F - 70.3 °F 80% 30.08 in 10.0 mi South 13.8 mph 19.6 mph N/A   Clear
6:15 AM 77.0 °F - 70.5 °F 80% 30.09 in 10.0 mi South 12.7 mph 18.4 mph N/A   Clear
6:35 AM 76.5 °F - 70.5 °F 82% 30.10 in 10.0 mi South 13.8 mph 21.9 mph N/A   Clear
6:55 AM 76.3 °F - 70.7 °F 83% 30.10 in 10.0 mi South 15.0 mph 24.2 mph N/A   Clear
7:15 AM 76.3 °F - 70.5 °F 82% 30.10 in 10.0 mi South 13.8 mph 17.3 mph N/A   Clear
7:35 AM 76.5 °F - 70.7 °F 82% 30.11 in 10.0 mi South 12.7 mph 19.6 mph N/A   Clear
7:55 AM 77.0 °F - 70.7 °F 81% 30.11 in 10.0 mi SSE 10.4 mph 19.6 mph N/A   Clear
8:15 AM 77.9 °F - 70.7 °F 78% 30.10 in 10.0 mi South 12.7 mph 18.4 mph N/A   Clear
8:35 AM 78.3 °F - 70.9 °F 78% 30.10 in 10.0 mi South 15.0 mph 18.4 mph N/A   Clear
8:55 AM 79.2 °F - 71.6 °F 78% 30.11 in 10.0 mi South 12.7 mph 19.6 mph N/A   Clear
9:15 AM 80.2 °F 84.0 °F 71.8 °F 75% 30.10 in 10.0 mi South 13.8 mph 20.7 mph N/A   Clear
9:35 AM 81.1 °F 85.6 °F 72.0 °F 74% 30.10 in 10.0 mi South 16.1 mph 19.6 mph N/A   Clear
9:55 AM 82.0 °F 87.0 °F 72.1 °F 72% 30.10 in 10.0 mi South 11.5 mph 18.4 mph N/A   Clear
10:15 AM 83.3 °F 88.7 °F 72.3 °F 69% 30.09 in 10.0 mi South 16.1 mph 19.6 mph N/A   Clear
10:35 AM 84.6 °F 90.7 °F 72.7 °F 67% 30.10 in 10.0 mi South 13.8 mph 19.6 mph N/A   Clear
10:55 AM 85.5 °F 91.8 °F 72.3 °F 65% 30.09 in 10.0 mi South 15.0 mph 23.0 mph N/A   Clear
11:15 AM 86.2 °F 92.6 °F 72.3 °F 63% 30.10 in 10.0 mi South 15.0 mph 26.5 mph N/A   Clear
11:35 AM 87.6 °F 95.2 °F 73.0 °F 62% 30.09 in 10.0 mi South 11.5 mph 20.7 mph N/A   Clear
11:55 AM 88.0 °F 95.1 °F 72.7 °F 60% 30.08 in 10.0 mi South 13.8 mph 19.6 mph N/A   Clear
12:15 PM 88.9 °F 97.1 °F 73.2 °F 60% 30.08 in 10.0 mi South 11.5 mph 19.6 mph N/A   Clear
12:35 PM 90.3 °F 99.3 °F 73.6 °F 58% 30.08 in 10.0 mi South 11.5 mph - N/A   Clear
12:55 PM 90.5 °F 99.2 °F 73.2 °F 57% 30.08 in 10.0 mi South 10.4 mph 20.7 mph N/A   Clear
1:15 PM 91.4 °F 99.5 °F 72.9 °F 54% 30.07 in 10.0 mi South 10.4 mph 16.1 mph N/A   Clear
1:35 PM 91.8 °F 99.7 °F 72.3 °F 53% 30.06 in 10.0 mi South 10.4 mph - N/A   Clear
1:55 PM 92.7 °F 101.1 °F 72.7 °F 52% 30.06 in 10.0 mi South 13.8 mph 17.3 mph N/A   Clear
2:15 PM 93.2 °F 101.7 °F 72.7 °F 51% 30.06 in 10.0 mi South 12.7 mph 18.4 mph N/A   Clear
2:35 PM 93.6 °F 101.9 °F 72.5 °F 50% 30.06 in 10.0 mi South 13.8 mph - N/A   Clear
2:55 PM 94.1 °F 101.8 °F 72.0 °F 48% 30.06 in 10.0 mi South 12.7 mph 20.7 mph N/A   Clear
3:15 PM 94.3 °F 102.2 °F 71.8 °F 48% 30.05 in 10.0 mi South 16.1 mph - N/A   Clear
3:35 PM 94.3 °F 103.5 °F 72.9 °F 50% 30.05 in 10.0 mi South 12.7 mph - N/A   Clear
3:55 PM 94.6 °F 104.4 °F 73.2 °F 50% 30.04 in 10.0 mi South 9.2 mph 18.4 mph N/A   Clear
4:15 PM 94.3 °F 102.9 °F 72.7 °F 49% 30.04 in 10.0 mi South 10.4 mph - N/A   Clear
4:35 PM 94.3 °F 102.9 °F 72.7 °F 49% 30.04 in 10.0 mi South 13.8 mph - N/A   Clear
4:55 PM 94.3 °F 102.9 °F 72.5 °F 49% 30.04 in 10.0 mi South 12.7 mph 19.6 mph N/A   Clear
5:15 PM 93.7 °F 101.7 °F 71.8 °F 49% 30.04 in 10.0 mi South 11.5 mph 19.6 mph N/A   Clear
5:35 PM 93.6 °F 102.5 °F 72.7 °F 51% 30.04 in 10.0 mi SSE 12.7 mph - N/A   Clear
5:55 PM 92.5 °F 101.9 °F 73.4 °F 54% 30.04 in 10.0 mi SSE 10.4 mph - N/A   Clear
6:15 PM 91.6 °F 99.9 °F 72.9 °F 54% 30.04 in 10.0 mi SSE 9.2 mph - N/A   Clear
6:35 PM 91.2 °F 99.1 °F 72.7 °F 54% 30.04 in 10.0 mi SSE 9.2 mph - N/A   Clear
6:55 PM 90.1 °F 97.8 °F 72.7 °F 56% 30.04 in 10.0 mi SSE 10.4 mph - N/A   Clear
7:15 PM 89.2 °F 97.9 °F 73.6 °F 60% 30.04 in 10.0 mi SSE 8.1 mph - N/A   Clear
7:35 PM 88.7 °F 96.7 °F 73.4 °F 60% 30.04 in 10.0 mi SSE 10.4 mph - N/A   Clear
7:55 PM 87.6 °F 95.7 °F 73.4 °F 63% 30.04 in 10.0 mi SSE 10.4 mph - N/A   Clear
8:15 PM 86.9 °F 94.1 °F 72.9 °F 63% 30.04 in 10.0 mi SSE 13.8 mph 18.4 mph N/A   Clear
8:35 PM 86.4 °F 93.4 °F 72.7 °F 64% 30.04 in 10.0 mi SSE 10.4 mph - N/A   Clear
8:55 PM 84.9 °F 91.8 °F 73.2 °F 68% 30.05 in 10.0 mi SSE 9.2 mph - N/A   Clear
9:15 PM 84.4 °F 91.0 °F 73.0 °F 69% 30.06 in 10.0 mi SSE 9.2 mph 16.1 mph N/A   Clear
9:35 PM 83.7 °F 90.4 °F 73.6 °F 72% 30.06 in 10.0 mi SSE 9.2 mph - N/A   Clear
9:55 PM 83.3 °F 89.9 °F 73.9 °F 73% 30.07 in 10.0 mi SSE 10.4 mph - N/A   Clear
10:15 PM 83.3 °F 89.6 °F 73.6 °F 72% 30.07 in 10.0 mi SSE 11.5 mph - N/A   Clear
10:35 PM 82.9 °F 89.1 °F 73.4 °F 73% 30.07 in 10.0 mi SSE 10.4 mph - N/A   Clear
10:55 PM 82.9 °F 88.5 °F 72.9 °F 71% 30.08 in 10.0 mi SSE 11.5 mph 18.4 mph N/A   Clear
11:15 PM 82.6 °F 87.8 °F 72.5 °F 71% 30.07 in 10.0 mi SSE 13.8 mph 18.4 mph N/A   Clear
11:35 PM 82.4 °F 87.4 °F 72.3 °F 71% 30.08 in 10.0 mi South 12.7 mph 18.4 mph N/A   Clear
11:55 PM 81.9 °F 86.6 °F 72.1 °F 72% 30.08 in 10.0 mi SSE 11.5 mph 17.3 mph N/A   Clear